Lake Isabella Weather Center

Moon Phase Calendar



Lake Isabella Water Level
Online Cameras

 


      

Current Conditions in Wofford Heights
12/8/2021 2:20:29 AM

46°F
Feels Like 46
Clear
Humidity
70%
Pressure
30.03"
Wind
2.2 mph (E)
Dew Point
37°F
UV Index
0/10 (Low)
Visibility
6 mi

Hourly Forecast

Date & Time Wed, Dec 8
2:00 AM
Wed, Dec 8
3:00 AM
Wed, Dec 8
4:00 AM
Wed, Dec 8
5:00 AM
Wed, Dec 8
6:00 AM
Wed, Dec 8
7:00 AM
Wed, Dec 8
8:00 AM
Wed, Dec 8
9:00 AM
Wed, Dec 8
10:00 AM
Wed, Dec 8
11:00 AM
Wed, Dec 8
12:00 PM
Wed, Dec 8
1:00 PM
Wed, Dec 8
2:00 PM
Wed, Dec 8
3:00 PM
Wed, Dec 8
4:00 PM
Wed, Dec 8
5:00 PM
Wed, Dec 8
6:00 PM
Wed, Dec 8
7:00 PM
Wed, Dec 8
8:00 PM
Wed, Dec 8
9:00 PM
Wed, Dec 8
10:00 PM
Wed, Dec 8
11:00 PM
Thu, Dec 9
12:00 AM
Thu, Dec 9
1:00 AM
Thu, Dec 9
2:00 AM
Thu, Dec 9
3:00 AM
Thu, Dec 9
4:00 AM
Thu, Dec 9
5:00 AM
Thu, Dec 9
6:00 AM
Thu, Dec 9
7:00 AM
Thu, Dec 9
8:00 AM
Thu, Dec 9
9:00 AM
Thu, Dec 9
10:00 AM
Thu, Dec 9
11:00 AM
Thu, Dec 9
12:00 PM
Thu, Dec 9
1:00 PM
Thu, Dec 9
2:00 PM
Thu, Dec 9
3:00 PM
Thu, Dec 9
4:00 PM
Thu, Dec 9
5:00 PM
Thu, Dec 9
6:00 PM
Thu, Dec 9
7:00 PM
Thu, Dec 9
8:00 PM
Thu, Dec 9
9:00 PM
Thu, Dec 9
10:00 PM
Thu, Dec 9
11:00 PM
Fri, Dec 10
12:00 AM
Fri, Dec 10
1:00 AM
Condition
Clear

Clear

Clear

Clear

Clear

Clouds

Clouds

Clouds

Clouds

Clear

Clouds

Clouds

Clouds

Clouds

Clouds

Clear

Clouds

Clouds

Clouds

Clouds

Clouds

Clouds

Clouds

Clouds

Clouds

Clouds

Clouds

Rain

Rain

Rain

Rain

Rain

Rain

Rain

Rain

Rain

Rain

Clouds

Clouds

Clouds

Clouds

Clouds

Clouds

Clouds

Clouds

Clouds

Clouds

Clouds
Temperature 46°F46°F46°F46°F46°F46°F51°F56°F59°F61°F62°F62°F61°F60°F57°F50°F49°F49°F50°F50°F48°F47°F47°F47°F47°F49°F48°F47°F47°F46°F45°F44°F44°F44°F43°F42°F42°F42°F42°F41°F40°F39°F40°F40°F40°F40°F40°F37°F
Feels Like 46°F46°F45°F45°F45°F45°F49°F54°F57°F59°F60°F60°F59°F58°F54°F48°F46°F47°F49°F49°F46°F44°F44°F43°F44°F45°F44°F43°F42°F41°F40°F39°F39°F38°F38°F37°F36°F36°F36°F36°F35°F34°F35°F36°F37°F37°F37°F33°F
Cloudiness 7%7%7%3%9%17%36%32%32%3%49%66%68%56%49%9%25%47%53%56%52%33%40%45%58%66%72%100%100%100%100%100%100%100%100%100%100%98%95%77%66%59%57%59%60%67%74%70%
Visibility 6 mi6 mi6 mi6 mi6 mi6 mi6 mi6 mi6 mi6 mi6 mi6 mi6 mi6 mi6 mi6 mi6 mi6 mi6 mi6 mi6 mi6 mi6 mi6 mi6 mi6 mi6 mi5 mi1 mi0 mi0 mi0 mi0 mi0 mi0 mi0 mi0 mi1 mi3 mi6 mi6 mi6 mi6 mi6 mi6 mi6 mi6 mi6 mi
Precipitation 0%0%0%0%0%0%0%0%0%0%0%0%0%0%0%0%0%0%0%0%0%0%0%0%0%0%0%35%41%60%68%77%82%84%80%78%74%74%74%9%9%1%1%0%0%0%0%0%
Humidity 70%71%70%70%71%71%59%47%42%40%40%40%43%48%55%71%74%75%78%81%88%92%93%94%94%92%91%92%94%94%97%97%97%98%98%97%94%89%89%91%93%93%92%87%84%83%84%88%
Dew Point 37°F37°F37°F37°F37°F31°F32°F31°F31°F32°F32°F33°F34°F35°F35°F35°F35°F36°F38°F39°F39°F39°F39°F39°F40°F41°F40°F39°F39°F39°F38°F38°F38°F37°F37°F36°F35°F33°F33°F33°F32°F32°F32°F31°F30°F30°F30°F28°F
Pressure 30.03"30.03"30.03"30.06"30.03"30.06"30.03"30.03"30.03"29.97"29.94"29.94"29.91"29.91"29.91"29.94"29.97"29.97"29.97"29.94"29.94"29.94"29.91"29.91"29.88"29.85"29.85"29.85"29.85"29.88"29.88"29.88"29.91"29.91"29.88"29.88"29.91"29.91"29.94"29.94"29.97"30"30.03"30.03"30.06"30.09"30.09"30.12"
Wind Speed 2.2 mph2 mph3.2 mph3.8 mph3.2 mph3.4 mph3.5 mph4.6 mph6.1 mph6.8 mph8.1 mph9.8 mph10.2 mph10.4 mph8.9 mph7.4 mph6.4 mph6.3 mph6.5 mph6.2 mph6.5 mph6.7 mph6.6 mph7 mph7.2 mph8 mph8.8 mph9.3 mph9.9 mph9.9 mph9.1 mph8.7 mph8.6 mph9.5 mph9.9 mph10.2 mph10.1 mph9.9 mph9 mph7.5 mph6.7 mph7.1 mph6.2 mph5.4 mph5.2 mph4.8 mph4.8 mph4.8 mph
Wind
Direction
81°
E
351°
N
338°
NNW
342°
NNW
344°
NNW
340°
NNW
316°
NW
265°
W
262°
W
248°
WSW
253°
WSW
259°
W
266°
W
268°
W
267°
W
280°
W
290°
WNW
290°
WNW
292°
WNW
288°
WNW
289°
WNW
289°
WNW
283°
WNW
281°
W
280°
W
275°
W
271°
W
271°
W
274°
W
277°
W
272°
W
269°
W
264°
W
268°
W
270°
W
272°
W
272°
W
278°
W
287°
WNW
291°
WNW
292°
WNW
294°
WNW
292°
WNW
295°
WNW
292°
WNW
294°
WNW
294°
WNW
315°
NW

Daily Forecast

Date High Low Precip. Humidity
Today
Dec 8

Clear
62 °F
46 °F
0%
40%
Thursday
Dec 9

Rain
49 °F
39 °F
84%
98%
Friday
Dec 10

Clouds
51 °F
34 °F
0%
58%
Saturday
Dec 11

Clouds
57 °F
38 °F
0%
44%
Sunday
Dec 12

Clear
58 °F
39 °F
3%
29%
Monday
Dec 13

Rain
51 °F
44 °F
51%
74%
Tuesday
Dec 14

Snow
47 °F
35 °F
100%
94%
Wednesday
Dec 15

Snow
37 °F
27 °F
74%
74%
Thursday
Dec 16

Snow
43 °F
29 °F
52%
97%
Friday
Dec 17

Clouds
46 °F
35 °F
0%
88%
Saturday
Dec 18

Snow
43 °F
37 °F
100%
93%
Sunday
Dec 19

Snow
46 °F
35 °F
93%
89%
Monday
Dec 20

Clouds
43 °F
26 °F
4%
63%
Tuesday
Dec 21

Clouds
47 °F
34 °F
5%
76%
Wednesday
Dec 22

Snow
45 °F
37 °F
100%
82%
Thursday
Dec 23

Snow
38 °F
32 °F
100%
98%

Temperature 8-14 Day Outlook



Precipitation 8-14 Day Outlook




Quick Links
Lake Isabella News
Lake Isabella Photos
Lake Isabella Videos




About Us
Contact Us
Site Map
Search Site
Advertise With Us
   
Isabella.USLakes.info
THE LAKE ISABELLA WEBSITE

Copyright 2021, Lakes Online
Privacy    |    Legal